Current Weather Conditions: station 63118

sailwx.info

Last reported at 2019-Apr-12 16:17 UTC.
Time now 2020-Jan-26 03:48 UTC

Location: N 59°36' E 005°42'.
View on Google Maps.

See reports from other nearby stations

  
Tides and Currents Weather Stations Pressure Air Temp Water Temp Dewpoint Dewpoint Depression Visibility Wind Speed Wind Dir Waves Ship Positions
date/time (UTC)wind fromknots sea level pressurealtimeterstation pressurevisibilityair tempwater tempwave heightnotes
2020-Jan-26 03:00 030 10.8 6.4
2020-Jan-26 02:00 030 2.2 6.5
2020-Jan-26 01:00 030 5.4 6.9
2020-Jan-26 00:00 030 10.8 6.9
2020-Jan-25 23:00 030 2.2 6.7
2020-Jan-25 22:00 030 2.2 6.7
2020-Jan-25 21:00 040 5.4 6.6
2020-Jan-25 20:00 040 10.8 6.8
2020-Jan-25 19:00 040 2.2 6.5
2020-Jan-25 18:00 030 5.4 7.1
2020-Jan-25 17:00 030 5.4 7.1
2020-Jan-25 16:00 020 2.2 7.2
2020-Jan-25 15:00 030 1.1 6.4
2020-Jan-25 14:00 060 2.2 6.0
2020-Jan-25 13:00 330 2.2 5.9
2020-Jan-25 12:00 340 2.2 5.9
2020-Jan-25 11:00 360 5.4 6.8
2020-Jan-25 10:00 040 10.8 6.7
2020-Jan-25 09:00 040 10.8 5.0
2020-Jan-25 08:00 060 0.5 4.0
2020-Jan-25 07:00 030 5.4 3.7
2020-Jan-25 06:00 050 5.4 3.6
2020-Jan-25 05:00 060 2.2 3.1
2020-Jan-25 04:00 070 5.4 2.9
2020-Jan-25 03:00 080 2.2 2.9
2020-Jan-25 02:00 060 10.8 2.8
2020-Jan-25 01:00 050 5.4 2.8
2020-Jan-25 00:00 060 10.8 3.1
2020-Jan-24 23:00 060 10.8 2.6
2020-Jan-24 22:00 050 10.8 2.4
2020-Jan-24 21:00 360 2.2 3.3
2020-Jan-24 20:00 110 1.1 3.3
2020-Jan-24 19:00 050 10.8 3.6
2020-Jan-24 18:00 020 1.1 4.3
2020-Jan-24 17:00 050 10.8 4.5
2020-Jan-24 16:00 050 10.8 4.6
2020-Jan-24 15:00 060 10.8 4.8
2020-Jan-24 14:00 060 5.4 4.7
2020-Jan-24 13:00 050 10.8 4.3
2020-Jan-24 12:00 060 2.2 5.4
2020-Jan-24 11:00 060 10.8 5.2
2020-Jan-24 10:00 070 10.8 5.0
2020-Jan-24 09:00 060 10.8 4.8
2020-Jan-24 08:00 070 10.8 5.1
2020-Jan-24 07:00 080 5.4 5.5
2020-Jan-24 06:00 060 10.8 5.7
2020-Jan-24 05:00 070 10.8 6.1
2020-Jan-24 04:00 060 2.2 6.4
2020-Jan-24 03:00 060 2.2 6.2